SL-19 DEB, 23482

Orbit data source: Space-Track

SL-19 DEB, 23482 is space debris in LEO originally from a launch on Mon, 26 Dec 1994 UTC launched from the Tyuratam Missile And Space Complex (TTMTR). Debris objects in space refer to the collection of defunct objects orbiting the Earth. Examples of debris include non-operational satellites, rocket bodies, and fragments generated from explosions, collisions, or faulty payload assembly.

Loading next visibility...
Identifier
23482, 1994-085E
Orbit
LEO
Country
Flag of CISCIS
Related business
Manufacturer
Unknown
Mission
Spacecraft
Bus & Motor
Unknown
Mass
Unknown
Launch date (UTC)
1994-12-26 (31 years ago)
Launch vehicle
Unknown
Launch site
Tyuratam Missile And Space Complex (TTMTR)
Object type
Payload
Rocket body
Debris
Shape & HBR
Unknown shape, 0.1 m
Radar Cross Section
Medium (>0.1 m² and <1 m²)

Expand to show TLE details & history
Last TLE update: 1 day ago

TLE from 1 day ago
0 SL-19 DEB
1 23482U 94085E   25309.30477153  .00003881  00000-0  91482-1 0  9999
2 23482  64.6917 241.6942 0402366 216.3268 227.2921 11.31316200271149
Epoch: 2025-11-05T07:18Z
TLE epoch observation values (Epoch: 2025-11-05T07:18:52.260Z)
Latitude
63.12655°
Longitude
155.47281°
Altitude
2,249.536 km
Speed
6.707 km/s
True Right ascension
20h 39m 52s
True Declination
63° 00' 42"
Sunlit
Object was in daylight at epoch
Visualization orbit readout
Latitude
Unknown
Longitude
Unknown
Altitude
Unknown
Speed
Unknown
Apparent Right ascension
Unknown
Apparent Declination
Unknown
Sunlit
N/A
Visualization observer readout
Local Sidereal Time
05:50:59
Azimuth
Unknown
Elevation
Unknown
Doppler factor
Unknown
Orbital elements
Apogee altitude
2,339.858 km
Perigee altitude
1,665.429 km
Semi-major axis
8,380.78 km
Eccentricity
0.04024
Inclination
64.6917°
RAAN
241.6942°
Arg. of periapsis
216.3268°
True anomaly
224.01769°
Mean anomaly
227.2921°
Eccentric anomaly
225.64373°
Mean motion
2.82889 °/min
Orbital period
127.26 mins
BSTAR
0.091482
Loading maneuver chart data...
Computing Atmospheric mass density...
Loading historical data...
Loading historical data...
Loading historical data...
Loading historical data...
Loading historical data...
Loading historical data...
Loading historical data...

Documentation

Showing up to 5 results
|